{"data":{"norad_id":62110,"epoch":"2026-09-21T03:33:50.187456Z","epoch_age_seconds":126067,"freshness":"FRESH","line1":"1 62110U 24220Y   26264.14849754  .00008323  00000+0  31163-3 0  9994","line2":"2 62110  43.0006 181.7330 0001017 272.1102  87.9633 15.27581102103082","mean_motion":15.27581102,"eccentricity":0.0001017,"inclination_deg":43.0006,"raan_deg":181.733,"arg_perigee_deg":272.1102,"mean_anomaly_deg":87.9633,"bstar":0.00031163,"rev_number":10308,"period_min":94.266680709434,"perigee_km":482.34801396682,"apogee_km":483.74357854757,"semimajor_km":6861.1827962572,"source":"CELESTRAK","updated_at":"2026-09-22T09:00:49.523233Z"}}